Weather History for KVKY - December, 2013

Change the Weather History Date:

Friday, December 27, 2013

  Actual Average Record
Temperature  
Mean Temperature 60 °F -  
Max Temperature 62 °F - - ()
Min Temperature 57 °F - - ()
Degree Days  
Heating Degree Days 6    
Growing Degree Days 10 (Base 50)    
Moisture  
Dew Point 50 °F    
Average Humidity 70    
Maximum Humidity 82    
Minimum Humidity 63    
Precipitation  
Precipitation 0.00 in - - ()
Sea Level Pressure  
Sea Level Pressure 30.27 in    
Wind  
Wind Speed 22 mph (East)    
Max Wind Speed 26 mph    
Max Gust Speed 31 mph    
Visibility 10 miles    
Events      
T = Trace of Precipitation, MM = Missing Value Source: NWS Daily Summary

Daily Weather History Graph

Daily Weather History Graph

Search for Another Location

Airport or City:

Trip Planner

Search our weather history database for the weather conditions in past years. The results will help you decide how hot, cold, wet, or windy it might be!

Date:

Astronomy

Dec. 27, 2013 Rise Set
Actual Time 6:46 AM CST 5:03 PM CST
Civil Twilight 6:20 AM CST 5:29 PM CST
Nautical Twilight 5:50 AM CST 5:59 PM CST
Astronomical Twilight 5:21 AM CST 6:28 PM CST
Moon 1:32 AM CST 1:01 PM CST
Length of Visible Light 11h 09m
Length of Day
10h 17m
Waning Crescent, 28% of the Moon is Illuminated
Dec 27
Waning Crescent
Jan 1
New
Jan 7
First Quarter
Jan 15
Full
Jan 23
Last Quarter

Hourly Weather History & Observations

Time (CST) Temp. Dew Point Humidity Pressure Visibility Wind Dir Wind Speed Gust Speed Precip Events Conditions
12:15 AM 57.2 °F 46.4 °F 67% 30.28 in 10.0 mi East 17.3 mph - N/A   Mostly Cloudy
12:35 AM 59.0 °F 46.4 °F 63% 30.28 in 10.0 mi East 19.6 mph - N/A   Mostly Cloudy
12:55 AM 57.2 °F 46.4 °F 67% 30.28 in 10.0 mi East 20.7 mph - N/A   Mostly Cloudy
1:15 AM 59.0 °F 46.4 °F 63% 30.27 in 10.0 mi ESE 19.6 mph - N/A   Mostly Cloudy
1:35 AM 59.0 °F 46.4 °F 63% 30.26 in 10.0 mi ESE 19.6 mph 25.3 mph N/A   Scattered Clouds
1:55 AM 59.0 °F 48.2 °F 67% 30.27 in 10.0 mi East 20.7 mph - N/A   Mostly Cloudy
2:15 AM 59.0 °F 48.2 °F 67% 30.27 in 10.0 mi East 21.9 mph - N/A   Mostly Cloudy
2:35 AM 59.0 °F 48.2 °F 67% 30.26 in 10.0 mi ESE 21.9 mph - N/A   Mostly Cloudy
2:55 AM 59.0 °F 48.2 °F 67% 30.27 in 10.0 mi ESE 20.7 mph - N/A   Mostly Cloudy
3:15 AM 59.0 °F 48.2 °F 67% 30.25 in 10.0 mi ESE 21.9 mph - N/A   Mostly Cloudy
3:35 AM 59.0 °F 48.2 °F 67% 30.25 in 10.0 mi East 23.0 mph - N/A   Scattered Clouds
3:55 AM 59.0 °F 48.2 °F 67% 30.26 in 10.0 mi East 23.0 mph 28.8 mph N/A   Clear
4:15 AM 59.0 °F 48.2 °F 67% 30.26 in 10.0 mi East 21.9 mph 28.8 mph N/A   Clear
4:35 AM 59.0 °F 48.2 °F 67% 30.25 in 10.0 mi East 23.0 mph - N/A   Clear
4:55 AM 59.0 °F 48.2 °F 67% 30.26 in 10.0 mi East 23.0 mph - N/A   Clear
5:15 AM 59.0 °F 48.2 °F 67% 30.27 in 10.0 mi East 21.9 mph - N/A   Clear
5:35 AM 59.0 °F 48.2 °F 67% 30.27 in 10.0 mi East 24.2 mph - N/A   Clear
5:55 AM 59.0 °F 48.2 °F 67% 30.28 in 10.0 mi East 24.2 mph - N/A   Clear
6:15 AM 59.0 °F 48.2 °F 67% 30.28 in 10.0 mi East 20.7 mph - N/A   Clear
6:35 AM 59.0 °F 48.2 °F 67% 30.29 in 10.0 mi ESE 21.9 mph - N/A   Partly Cloudy
6:55 AM 59.0 °F 48.2 °F 67% 30.29 in 10.0 mi East 25.3 mph - N/A   Clear
7:15 AM 59.0 °F 48.2 °F 67% 30.30 in 10.0 mi ESE 25.3 mph - N/A   Clear
7:35 AM 59.0 °F 48.2 °F 67% 30.30 in 10.0 mi East 25.3 mph - N/A   Clear
7:55 AM 59.0 °F 48.2 °F 67% 30.32 in 10.0 mi East 23.0 mph - N/A   Clear
8:15 AM 59.0 °F 50.0 °F 72% 30.32 in 10.0 mi East 24.2 mph - N/A   Partly Cloudy
8:35 AM 59.0 °F 50.0 °F 72% 30.32 in 10.0 mi East 23.0 mph 31.1 mph N/A   Partly Cloudy
8:55 AM 59.0 °F 50.0 °F 72% 30.34 in 10.0 mi East 19.6 mph - N/A   Mostly Cloudy
9:15 AM 59.0 °F 50.0 °F 72% 30.33 in 10.0 mi ESE 23.0 mph - N/A   Mostly Cloudy
9:35 AM 59.0 °F 50.0 °F 72% 30.33 in 10.0 mi East 23.0 mph - N/A   Scattered Clouds
9:55 AM 59.0 °F 50.0 °F 72% 30.32 in 10.0 mi East 24.2 mph - N/A   Partly Cloudy
10:15 AM 59.0 °F 51.8 °F 77% 30.31 in 10.0 mi East 23.0 mph - N/A   Clear
10:35 AM 59.0 °F 51.8 °F 77% 30.31 in 10.0 mi East 24.2 mph - N/A   Partly Cloudy
10:55 AM 59.0 °F 50.0 °F 72% 30.31 in 10.0 mi East 23.0 mph - N/A   Scattered Clouds
11:15 AM 59.0 °F 51.8 °F 77% 30.30 in 10.0 mi ESE 24.2 mph - N/A   Scattered Clouds
11:35 AM 59.0 °F 51.8 °F 77% 30.30 in 10.0 mi ESE 24.2 mph - N/A   Mostly Cloudy
11:55 AM 59.0 °F 51.8 °F 77% 30.30 in 10.0 mi East 20.7 mph 27.6 mph N/A   Mostly Cloudy
12:15 PM 59.0 °F 51.8 °F 77% 30.29 in 10.0 mi East 20.7 mph - N/A   Mostly Cloudy
12:35 PM 59.0 °F 50.0 °F 72% 30.28 in 10.0 mi East 20.7 mph - N/A   Mostly Cloudy
12:55 PM 59.0 °F 50.0 °F 72% 30.27 in 10.0 mi East 21.9 mph - N/A   Mostly Cloudy
1:15 PM 59.0 °F 50.0 °F 72% 30.26 in 10.0 mi East 23.0 mph - N/A   Mostly Cloudy
1:35 PM 59.0 °F 50.0 °F 72% 30.26 in 10.0 mi ESE 21.9 mph - N/A   Overcast
1:55 PM 59.0 °F 50.0 °F 72% 30.25 in 10.0 mi East 21.9 mph - N/A   Overcast
2:15 PM 59.0 °F 50.0 °F 72% 30.25 in 10.0 mi East 20.7 mph - N/A   Overcast
2:35 PM 59.0 °F 50.0 °F 72% 30.24 in 10.0 mi East 18.4 mph - N/A   Overcast
2:55 PM 60.8 °F 50.0 °F 68% 30.23 in 10.0 mi East 23.0 mph - N/A   Overcast
3:15 PM 59.0 °F 50.0 °F 72% 30.24 in 10.0 mi East 20.7 mph 27.6 mph N/A   Overcast
3:35 PM 59.0 °F 50.0 °F 72% 30.24 in 10.0 mi East 23.0 mph - N/A   Overcast
3:55 PM 59.0 °F 50.0 °F 72% 30.25 in 10.0 mi East 20.7 mph - N/A   Overcast
4:15 PM 59.0 °F 50.0 °F 72% 30.25 in 10.0 mi East 21.9 mph - N/A   Overcast
4:35 PM 60.8 °F 50.0 °F 68% 30.26 in 10.0 mi East 23.0 mph - N/A   Overcast
4:55 PM 60.8 °F 50.0 °F 68% 30.26 in 10.0 mi East 21.9 mph - N/A   Overcast
5:15 PM 60.8 °F 50.0 °F 68% 30.25 in 10.0 mi East 23.0 mph - N/A   Overcast
5:35 PM 60.8 °F 51.8 °F 72% 30.26 in 10.0 mi East 20.7 mph - N/A   Overcast
5:55 PM 60.8 °F 51.8 °F 72% 30.27 in 10.0 mi East 23.0 mph - N/A   Overcast
6:15 PM 60.8 °F 51.8 °F 72% 30.27 in 10.0 mi East 24.2 mph - N/A   Overcast
6:35 PM 62.6 °F 51.8 °F 68% 30.27 in 10.0 mi East 20.7 mph 27.6 mph N/A   Overcast
6:55 PM 62.6 °F 51.8 °F 68% 30.26 in 10.0 mi East 24.2 mph - N/A   Overcast
7:15 PM 62.6 °F 51.8 °F 68% 30.26 in 10.0 mi East 25.3 mph - N/A   Overcast
7:35 PM 62.6 °F 50.0 °F 63% 30.27 in 10.0 mi East 25.3 mph - N/A   Overcast
7:55 PM 60.8 °F 50.0 °F 68% 30.27 in 10.0 mi East 25.3 mph - N/A   Overcast
8:15 PM 60.8 °F 50.0 °F 68% 30.26 in 10.0 mi East 26.5 mph - N/A   Overcast
8:35 PM 60.8 °F 50.0 °F 68% 30.26 in 10.0 mi East 26.5 mph - N/A   Overcast
8:55 PM 62.6 °F 50.0 °F 63% 30.27 in 10.0 mi East 24.2 mph - N/A   Overcast
9:15 PM 60.8 °F 50.0 °F 68% 30.26 in 10.0 mi East 25.3 mph - N/A   Overcast
9:35 PM 62.6 °F 51.8 °F 68% 30.26 in 10.0 mi East 23.0 mph - N/A   Overcast
9:55 PM 62.6 °F 51.8 °F 68% 30.26 in 10.0 mi ESE 23.0 mph - N/A   Overcast
10:15 PM 62.6 °F 53.6 °F 72% 30.24 in 8.0 mi ESE 25.3 mph - N/A   Overcast
10:35 PM 60.8 °F 53.6 °F 77% 30.23 in 10.0 mi ESE 25.3 mph - N/A   Overcast
10:55 PM 62.6 °F 55.4 °F 77% 30.23 in 10.0 mi ESE 26.5 mph - N/A   Overcast
11:15 PM 62.6 °F 55.4 °F 77% 30.21 in 10.0 mi ESE 26.5 mph - N/A   Overcast
11:35 PM 62.6 °F 57.2 °F 82% 30.22 in 10.0 mi ESE 24.2 mph 29.9 mph N/A   Overcast
11:55 PM 62.6 °F 57.2 °F 82% 30.21 in 10.0 mi ESE 25.3 mph - N/A   Overcast